This demonstration page uses our WeatherBlox Daily Observations layout. Learn more.

Left ArrowRight Arrow

Hourly Observations for October 4, 2018

Temp ( °F °C ) Dew Point ( °F °C ) Humidity (%) Winds ( mph kmh ) Pressure ( in mb ) Visibility ( mi km ) Precip ( " mm )
12:57 am 00:57 Clear 45 7.2 34 1.1 66 66 N 25 41 30.12 1020 10 16 0.00 0.00
1:57 am 01:57 Clear 43 6.1 34 1.1 71 71 NNE 22 35 30.13 1020 10 16 0.00 0.00
2:57 am 02:57 Clear 41 5 27 -2.8 57 57 NNE 24 39 30.18 1022 10 16 0.00 0.00
3:57 am 03:57 Mostly Clear 40 4.4 28 -2.2 63 63 NNE 17 28 30.23 1024 10 16 0.00 0.00
4:57 am 04:57 Mostly Cloudy with Light Rain 38 3.3 29 -1.7 70 70 NNE 18 30 30.23 1024 10 16 0.00 0.03
5:57 am 05:57 Mostly Cloudy 38 3.3 29 -1.7 70 70 NNE 20 31 30.26 1025 10 16 0.00 0.03
6:57 am 06:57 Mostly Cloudy 37 2.8 28 -2.2 70 70 NE 18 30 30.26 1025 10 16 0.00 0.00
7:57 am 07:57 Mostly Cloudy 37 2.8 27 -2.8 67 67 NNE 16 26 30.29 1026 10 16 0.00 0.00
8:57 am 08:57 Mostly Cloudy 38 3.3 27 -2.8 65 65 NNE 21 33 30.27 1025 10 16 0.00 0.00
9:57 am 09:57 Mostly Cloudy with Light Rain 38 3.3 28 -2.2 68 68 NE 16 26 30.28 1026 10 16 0.00 0.03
10:57 am 10:57 Mostly Cloudy 39 3.9 26 -3.3 60 60 NE 16 26 30.26 1025 10 16 0.00 0.03
11:57 am 11:57 Cloudy with Light Rain 37 2.8 32 0 82 82 NE 9 15 30.28 1025 10 16 0.06 1.52
12:57 pm 12:57 Cloudy with Light Rain 37 2.8 31 -0.6 79 79 NNE 10 17 30.25 1024 10 16 0.04 1.02
1:57 pm 13:57 Cloudy 37 2.8 32 0 82 82 NNE 12 19 30.22 1023 10 16 0.00 0.03
2:57 pm 14:57 Cloudy with Light Rain 37 2.8 33 0.6 86 86 NE 9 15 30.18 1022 10 16 0.00 0.03
3:57 pm 15:57 Cloudy with Light Rain 37 2.8 34 1.1 89 89 ENE 9 15 30.16 1021 10 16 0.02 0.51
4:17 pm 16:17 Cloudy with Light Rain 37 3 36 2 93 93 NE 9 15 30.18 1022 10 16 0.00 0.00
4:57 pm 16:57 Cloudy with Light Rain 38 3.3 35 1.7 89 89 ENE 8 13 30.12 1020 10 16 0.00 0.03
5:16 pm 17:16 Cloudy 37 3 36 2 93 93 NE 8 13 30.15 1021 10 16 0.00 0.03
5:57 pm 17:57 Cloudy 38 3.3 35 1.7 89 89 NE 7 11 30.11 1020 10 16 0.00 0.03
6:49 pm 18:49 Cloudy 37 3 36 2 93 93 E 9 15 30.09 1019 10 16 0.00 0.00
6:57 pm 18:57 Cloudy 38 3.3 36 2.2 93 93 E 7 11 30.07 1018 10 16 0.00 0.00
7:27 pm 19:27 Cloudy 37 3 36 2 93 93 ENE 6 9 30.12 1020 10 16 0.00 0.00
7:39 pm 19:39 Cloudy 37 3 36 2 93 93 ENE 5 7 30.12 1020 10 16 0.00 0.00
7:57 pm 19:57 Cloudy 38 3.3 36 2.2 93 93 ENE 3 6 30.10 1019 10 16 0.00 0.00
8:38 pm 20:38 Cloudy with Light Rain 37 3 37 3 100 100 NW 3 6 30.15 1021 5 8 0.00 0.03
8:46 pm 20:46 Cloudy with Light Rain 39 4 37 3 93 93 NW 3 6 30.15 1021 3 5 0.00 0.03
8:57 pm 20:57 Cloudy with Light Rain 38 3.3 37 2.8 97 97 WNW 5 7 30.12 1020 3 5 0.00 0.03
9:40 pm 21:40 Cloudy with Light Rain 39 4 37 3 93 93 SE 12 19 30.12 1020 10 16 0.00 0.03
9:45 pm 21:45 Cloudy 39 4 37 3 93 93 SSE 9 15 30.12 1020 9 14 0.00 0.00
9:57 pm 21:57 Cloudy 39 3.9 38 3.3 96 96 SE 8 13 30.08 1019 10 16 0.00 0.03
10:57 pm 22:57 Cloudy 39 3.9 38 3.3 96 96 SSW 5 7 30.05 1018 10 16 0.00 0.00
11:12 pm 23:12 Cloudy 39 4 37 3 93 93 SSW 5 7 30.09 1019 10 16 0.00 0.00
11:57 pm 23:57 Cloudy 39 3.9 38 3.3 96 96 S 7 11 30.04 1017 9 14 0.00 0.00

Powered by AerisWeather